Location: Frankfurt+(oder)
(51.7984°N, 12.2168°E)
Time: 08:28:58
(UTC+01:00)

ISS - Pass Details

Date: 14 November 2017
Orbit: 402 x 407 km, 51.6° (Epoch: 23 November)

Event Time Altitude Azimuth Distance (km) Brightness Sun altitude
Exits shadow 04:12:25 12° 104° (ESE) 1,347 -0.5 -30.1°
Drops below altitude 10° 04:12:41 10° 103° (ESE) 1,456 -0.2 -30.1°
Sets 04:14:46 0° 103° (ESE) 2,314 1.0 -29.7°
